Simultaneous Nadir Overpasses (SNOs) Predictions

Prediction of SNOs between FY3D and TERRA Satellite Orbit:

Table of predicted SNOs for the next 14.0 days since TLE Epoch: 12/31/2022
Index Date (FY3D) Time (FY3D) Lat,Lon (FY3D) SZA (FY3D ) Date (TERRA) Time (TERRA) Lat,Lon (TERRA) SZA (TERRA ) Distance(km) Time Diff (sec)
1 01/02/2023 01:52:39 -72.66, -28.43 84.49 01/02/2023 01:53:34 -72.65, -28.41 84.50 0.92 55
2 01/02/2023 02:43:24 72.57, 139.06 95.42 01/02/2023 02:42:58 72.55, 139.06 95.40 2.16 26
3 01/04/2023 13:57:01 72.98, -30.14 95.60 01/04/2023 13:58:12 72.86, -29.21 95.48 33.08 71
4 01/04/2023 14:47:39 -72.62, 137.93 84.77 01/04/2023 14:47:40 -72.62, 137.99 84.77 2.08 1
5 01/04/2023 15:38:19 72.28, -54.08 94.89 01/04/2023 15:37:07 72.36, -54.83 94.97 26.88 72
6 01/07/2023 02:51:55 72.65, 136.84 94.98 01/07/2023 02:52:21 72.65, 136.85 94.97 0.30 26
7 01/07/2023 03:42:39 -72.59, -55.72 85.09 01/07/2023 03:41:46 -72.57, -55.64 85.11 3.29 53
8 01/09/2023 14:56:10 -72.70, 135.71 85.31 01/09/2023 14:57:03 -72.68, 135.71 85.33 1.86 53
9 01/09/2023 15:46:54 72.58, -56.73 94.56 01/09/2023 15:46:27 72.57, -56.83 94.56 3.29 27
10 01/12/2023 03:00:30 72.95, 134.14 94.57 01/12/2023 03:01:41 72.82, 134.79 94.43 25.42 71
11 01/12/2023 03:51:09 -72.63, -57.86 85.77 01/12/2023 03:51:08 -72.64, -57.90 85.76 2.05 1



Historial Predications of SNOs between FY3D and TERRA
